EW9963 Weather Reports


time (UTC)temp
C
wind
direction
speed
KPH
gust
KPH
rain 1hr
cm
rain 24hr
cm
rain mn
cm
humidity
%
barometer
mb
20260906094605 20 0 0.0 0.0 0.00 0.43 0.03 92 1010.7
20260906093116 20 0 0.0 1.6 0.03 0.43 0.03 92 1010.7
20260906091546 20 0 0.0 1.6 0.03 0.43 0.03 92 1010.6
20260906090053 20 0 0.0 1.6 0.03 0.43 0.03 92 1010.5
20260906084549 20 0 0.0 1.6 0.03 0.43 0.03 92 1010.3
20260906083049 20 0 0.0 1.6 0.00 0.41 0.00 92 1010.3
20260906081555 20 0 0.0 0.0 0.00 0.41 0.00 92 1010.3
20260906080053 20 0 0.0 1.6 0.00 0.41 0.00 92 1010.4
20260906074553 20 0 0.0 0.0 0.00 0.41 0.00 92 1010.4
20260906073050 20 0 0.0 0.0 0.00 0.41 0.00 92 1010.4
20260906071546 20 0 0.0 0.0 0.00 0.41 0.00 92 1010.5
20260906070050 21 143 0.0 4.8 0.00 0.41 0.00 92 1010.6
20260906064548 21 0 0.0 0.0 0.00 0.41 0.00 92 1010.7
20260906063050 21 0 0.0 0.0 0.00 0.41 0.00 92 1010.8
20260906061549 21 0 0.0 0.0 0.00 0.41 0.00 92 1011.0
20260906060047 21 0 0.0 0.0 0.00 0.41 0.00 92 1011.0
20260906054602 21 0 0.0 0.0 0.00 0.41 0.00 91 1011.2
20260906053050 21 0 0.0 1.6 0.00 0.41 0.00 92 1011.5
20260906051558 21 0 0.0 1.6 0.00 0.41 0.00 92 1011.5
20260906050105 21 0 0.0 0.0 0.00 0.41 0.00 91 1011.4
20260906044557 21 0 0.0 1.6 0.00 0.41 0.00 91 1011.4
20260906043048 21 0 0.0 1.6 0.00 0.41 0.00 91 1011.5
20260906041547 21 0 0.0 1.6 0.00 0.41 0.00 91 1011.3
20260906034550 21 0 0.0 1.6 0.00 0.41 0.41 91 1011.3
20260906033049 21 0 0.0 1.6 0.00 0.41 0.41 91 1011.6
20260906031552 21 0 0.0 0.0 0.00 0.41 0.41 91 1011.7
20260906030049 21 0 0.0 3.2 0.00 0.41 0.41 90 1011.6
20260906024551 21 0 0.0 0.0 0.00 0.41 0.41 90 1011.9
20260906023052 21 0 0.0 0.0 0.00 0.41 0.41 90 1011.7
20260906021551 21 157 0.0 1.6 0.00 0.41 0.41 90 1011.5
20260906020049 21 0 0.0 1.6 0.00 0.41 0.41 90 1011.1
20260906014620 21 0 0.0 0.0 0.00 0.41 0.41 90 1011.0
20260906013058 22 0 0.0 1.6 0.00 0.41 0.41 90 1010.9
20260906011548 22 0 0.0 1.6 0.00 0.41 0.41 89 1010.7
20260906010053 22 0 0.0 1.6 0.00 0.41 0.41 90 1010.7
20260906004606 22 0 0.0 1.6 0.00 0.41 0.41 89 1010.6
20260906003059 22 0 0.0 1.6 0.03 0.41 0.41 89 1010.6
20260906001549 22 147 0.0 6.4 0.03 0.41 0.41 89 1011.0
20260906000050 22 171 1.6 6.4 0.03 0.41 0.41 89 1010.8
20260905234603 22 0 0.0 3.2 0.03 0.41 0.41 88 1011.3
20260905233050 22 146 1.6 6.4 0.00 0.38 0.38 87 1011.7
20260905231548 23 193 0.0 3.2 0.00 0.38 0.38 86 1011.6
20260905230053 23 0 0.0 4.8 0.00 0.38 0.38 85 1011.3
20260905224548 23 16 3.2 20.9 0.08 0.38 0.38 86 1011.2
20260905223048 23 0 0.0 9.7 0.38 0.38 0.38 86 1011.3
20260905221611 23 14 0.0 8.0 0.38 0.38 0.38 82 1011.2
20260905220049 25 171 3.2 11.3 0.38 0.38 0.38 82 1010.4
20260905214547 28 213 3.2 17.7 0.30 0.30 0.30 71 1010.9
20260905213103 32 355 12.9 29.0 0.00 0.00 0.00 50 1010.1
20260905211550 36 0 1.6 6.4 0.00 0.00 0.00 59 1009.0
20260905210052 36 0 0.0 4.8 0.00 0.00 0.00 57 1009.1
20260905204547 36 0 1.6 6.4 0.00 0.00 0.00 55 1009.3
20260905203053 36 158 3.2 11.3 0.00 0.00 0.00 55 1009.1
20260905201609 36 179 4.8 14.5 0.00 0.00 0.00 53 1009.3
20260905200051 36 146 4.8 12.9 0.00 0.00 0.00 54 1009.3
20260905194549 36 204 0.0 8.0 0.00 0.00 0.00 55 1009.5
20260905193107 36 0 0.0 9.7 0.00 0.00 0.00 58 1009.7
20260905191549 35 163 1.6 9.7 0.00 0.00 0.00 59 1010.0
20260905190048 35 150 4.8 12.9 0.00 0.00 0.00 59 1010.2
20260905184557 35 178 6.4 11.3 0.00 0.00 0.00 59 1010.6
20260905183050 35 137 1.6 12.9 0.00 0.00 0.00 59 1011.0
20260905181605 35 148 3.2 12.9 0.00 0.00 0.00 62 1011.1
20260905180052 34 150 1.6 8.0 0.00 0.00 0.00 63 1011.5
20260905174556 34 0 1.6 16.1 0.00 0.00 0.00 63 1011.5
20260905173051 33 104 0.0 9.7 0.00 0.00 0.00 64 1011.6
20260905171557 33 309 3.2 9.7 0.00 0.00 0.00 63 1011.9
20260905170050 33 0 0.0 12.9 0.00 0.00 0.00 66 1012.1
20260905164546 33 134 1.6 11.3 0.00 0.00 0.00 65 1012.3
20260905163048 33 181 3.2 9.7 0.00 0.00 0.00 67 1012.9
20260905161600 32 229 1.6 11.3 0.00 0.00 0.00 69 1013.0
20260905160048 32 299 1.6 6.4 0.00 0.00 0.00 69 1013.2
20260905154547 32 0 1.6 6.4 0.00 0.00 0.00 72 1013.4
20260905153048 31 183 3.2 9.7 0.00 0.00 0.00 70 1013.4
20260905151601 31 128 1.6 8.0 0.00 0.00 0.00 71 1013.6
20260905150048 31 213 0.0 4.8 0.00 0.00 0.00 74 1013.8
20260905144549 30 98 0.0 6.4 0.00 0.00 0.00 76 1013.9
20260905143045 29 0 1.6 6.4 0.00 0.00 0.00 77 1013.8
20260905141552 29 0 1.6 4.8 0.00 0.00 0.00 78 1013.9
20260905134556 27 153 3.2 12.9 0.00 0.00 0.00 83 1014.0
20260905133049 27 132 3.2 8.0 0.00 0.00 0.00 83 1014.2
20260905131551 26 0 1.6 9.7 0.00 0.00 0.00 86 1014.2
20260905130046 26 194 1.6 4.8 0.00 0.00 0.00 87 1014.2
20260905124552 25 146 3.2 11.3 0.00 0.00 0.00 89 1014.1
20260905123049 25 0 1.6 6.4 0.00 0.00 0.00 91 1014.1
20260905121545 24 200 1.6 6.4 0.00 0.00 0.00 92 1014.0
20260905120052 24 0 0.0 3.2 0.00 0.00 0.00 92 1014.0
20260905114550 23 132 1.6 6.4 0.00 0.00 0.00 92 1013.9
20260905113047 23 156 0.0 3.2 0.00 0.00 0.00 91 1013.7
20260905111554 23 0 0.0 0.0 0.00 0.00 0.00 91 1013.6
20260905110057 23 0 0.0 1.6 0.00 0.00 0.00 91 1013.5
20260905104603 23 167 0.0 1.6 0.00 0.00 0.00 91 1013.3
20260905103049 23 0 0.0 0.0 0.00 0.00 0.00 91 1013.3
20260905101546 23 0 0.0 0.0 0.00 0.00 0.00 91 1013.3
20260905100050 23 0 0.0 0.0 0.00 0.00 0.00 90 1013.1